{"data":{"norad_id":53532,"epoch":"2026-09-20T13:08:18.768480Z","epoch_age_seconds":74136,"freshness":"FRESH","line1":"1 53532U 22101F   26263.54743945  .00000175  00000+0  29066-4 0  9993","line2":"2 53532  53.1601 278.7119 0001148  77.9049 282.2071 15.08829537225583","mean_motion":15.08829537,"eccentricity":0.0001148,"inclination_deg":53.1601,"raan_deg":278.7119,"arg_perigee_deg":77.9049,"mean_anomaly_deg":282.2071,"bstar":2.9066e-5,"rev_number":22558,"period_min":95.438216490853,"perigee_km":538.98119401401,"apogee_km":540.56954669424,"semimajor_km":6917.9123703541,"source":"CELESTRAK","updated_at":"2026-09-21T09:00:32.899245Z"}}